QTR564 OMAA-OTHH

Flight info

Callsign QTR564
Flight time N/A
Altitude 20000
Route MEKRI P899 TOVOX
Aircraft A359/H-SDE2E3GHIJ3J4J5LM1ORWXY/LB1D1

Departure

Time 2026-05-03 22:25
Airport Zayed International Airport (OMAA)

Arrival

Time N/A
Airport Hamad International Airport (OTHH)
Time Latitude Longitude Altitude Speed Heading
2026-05-03 21:54 24.45416 54.64261 69 ft 0 kts 257°
2026-05-03 21:59 24.45421 54.64262 69 ft 2 kts 257°
2026-05-03 21:59 24.45416 54.64261 79 ft 0 kts 257°
2026-05-03 22:08 24.45421 54.64285 79 ft 4 kts 257°
2026-05-03 22:08 24.45426 54.64309 83 ft 4 kts 256°
2026-05-03 22:09 24.45436 54.64336 84 ft 4 kts 230°
2026-05-03 22:09 24.45456 54.64352 84 ft 4 kts 191°
2026-05-03 22:09 24.45482 54.64353 85 ft 4 kts 168°
2026-05-03 22:10 24.45533 54.64340 84 ft 3 kts 167°
2026-05-03 22:10 24.45537 54.64339 84 ft 0 kts 167°
2026-05-03 22:11 24.45534 54.64339 84 ft 5 kts 167°
2026-05-03 22:11 24.45404 54.64374 85 ft 16 kts 161°
2026-05-03 22:12 24.45324 54.64456 85 ft 17 kts 127°
2026-05-03 22:12 24.45291 54.64582 85 ft 18 kts 99°
2026-05-03 22:12 24.45269 54.64717 81 ft 19 kts 101°
2026-05-03 22:12 24.45246 54.64818 86 ft 14 kts 105°
2026-05-03 22:13 24.45227 54.64891 86 ft 16 kts 106°
2026-05-03 22:13 24.45179 54.65007 87 ft 16 kts 128°
2026-05-03 22:13 24.45113 54.65101 88 ft 17 kts 128°
2026-05-03 22:13 24.45023 54.65228 87 ft 16 kts 128°
2026-05-03 22:14 24.44973 54.65297 88 ft 18 kts 128°
2026-05-03 22:14 24.44895 54.65405 88 ft 14 kts 128°
2026-05-03 22:14 24.44890 54.65413 87 ft 0 kts 127°
2026-05-03 22:14 24.44832 54.65496 88 ft 10 kts 127°
2026-05-03 22:15 24.44795 54.65538 89 ft 7 kts 148°
2026-05-03 22:15 24.44748 54.65542 88 ft 5 kts 210°
2026-05-03 22:15 24.44689 54.65489 89 ft 16 kts 219°
2026-05-03 22:15 24.44598 54.65409 88 ft 16 kts 218°
2026-05-03 22:16 24.44521 54.65343 88 ft 14 kts 217°
2026-05-03 22:16 24.44435 54.65272 87 ft 17 kts 217°
2026-05-03 22:16 24.44336 54.65189 87 ft 19 kts 217°
2026-05-03 22:16 24.44226 54.65096 87 ft 21 kts 217°
2026-05-03 22:17 24.44140 54.65024 88 ft 10 kts 218°
2026-05-03 22:17 24.44075 54.64969 83 ft 13 kts 218°
2026-05-03 22:17 24.44005 54.64909 88 ft 14 kts 218°
2026-05-03 22:17 24.43968 54.64878 87 ft 0 kts 218°
2026-05-03 22:18 24.43937 54.64852 86 ft 22 kts 217°
2026-05-03 22:18 24.43820 54.64860 87 ft 19 kts 122°
2026-05-03 22:18 24.43736 54.64981 87 ft 21 kts 128°
2026-05-03 22:18 24.43654 54.65094 87 ft 19 kts 128°
2026-05-03 22:19 24.43639 54.65115 88 ft 0 kts 127°
2026-05-03 22:19 24.43611 54.65156 85 ft 23 kts 128°
2026-05-03 22:19 24.43536 54.65261 87 ft 16 kts 129°
2026-05-03 22:20 24.43462 54.65364 87 ft 18 kts 128°
2026-05-03 22:20 24.43379 54.65482 87 ft 21 kts 128°
2026-05-03 22:20 24.43284 54.65610 88 ft 23 kts 129°
2026-05-03 22:20 24.43189 54.65752 87 ft 24 kts 127°
2026-05-03 22:21 24.43081 54.65898 87 ft 26 kts 128°
2026-05-03 22:21 24.42970 54.66059 87 ft 27 kts 128°
2026-05-03 22:21 24.42850 54.66227 87 ft 29 kts 128°
2026-05-03 22:21 24.42723 54.66404 87 ft 30 kts 127°
2026-05-03 22:22 24.42591 54.66589 87 ft 32 kts 128°
2026-05-03 22:22 24.42467 54.66767 88 ft 28 kts 128°
2026-05-03 22:22 24.42373 54.66858 86 ft 13 kts 181°
2026-05-03 22:22 24.42324 54.66833 86 ft 0 kts 215°
2026-05-03 22:23 24.42260 54.66781 85 ft 36 kts 217°
2026-05-03 22:23 24.42223 54.66637 87 ft 20 kts 303°
2026-05-03 22:24 24.42284 54.66553 87 ft 0 kts 308°
2026-05-03 22:25 24.42433 54.66345 89 ft 73 kts 307°
2026-05-03 22:25 24.42898 54.65696 86 ft 140 kts 308°
2026-05-03 22:25 24.43619 54.64692 169 ft 188 kts 308°
2026-05-03 22:25 24.44445 54.63556 817 ft 194 kts 309°
2026-05-03 22:26 24.45274 54.62405 1501 ft 194 kts 308°
2026-05-03 22:26 24.46144 54.61171 1833 ft 217 kts 307°
2026-05-03 22:26 24.47120 54.59781 2129 ft 242 kts 308°
2026-05-03 22:26 24.48181 54.58274 2671 ft 254 kts 308°
2026-05-03 22:27 24.49246 54.56762 3416 ft 257 kts 308°
2026-05-03 22:27 24.50338 54.55216 4291 ft 257 kts 307°
2026-05-03 22:27 24.51436 54.53651 5077 ft 260 kts 306°
2026-05-03 22:27 24.52283 54.51901 5866 ft 261 kts 287°
2026-05-03 22:28 24.52539 54.49940 6668 ft 261 kts 274°
2026-05-03 22:28 24.52597 54.47939 7449 ft 263 kts 272°
2026-05-03 22:28 24.52639 54.45916 8245 ft 266 kts 272°
2026-05-03 22:28 24.52688 54.43874 9084 ft 267 kts 273°
2026-05-03 22:29 24.52743 54.41826 9956 ft 269 kts 273°
2026-05-03 22:29 24.52800 54.39733 10521 ft 284 kts 273°
2026-05-03 22:29 24.52864 54.37480 10824 ft 306 kts 273°
2026-05-03 22:29 24.52935 54.35068 11127 ft 326 kts 274°
2026-05-03 22:30 24.53013 54.32523 11485 ft 341 kts 273°
2026-05-03 22:30 24.53085 54.29885 12045 ft 348 kts 273°
2026-05-03 22:30 24.53157 54.27205 12671 ft 354 kts 273°
2026-05-03 22:30 24.53232 54.24486 13336 ft 359 kts 274°
2026-05-03 22:31 24.53308 54.21742 13978 ft 361 kts 273°
2026-05-03 22:31 24.53384 54.18966 14574 ft 365 kts 273°
2026-05-03 22:31 24.53363 54.16154 15143 ft 370 kts 269°
2026-05-03 22:31 24.53223 54.13317 15710 ft 375 kts 269°
2026-05-03 22:32 24.53080 54.10446 16288 ft 378 kts 269°
2026-05-03 22:32 24.52947 54.07547 16854 ft 382 kts 269°
2026-05-03 22:32 24.52823 54.04620 17415 ft 386 kts 269°
2026-05-03 22:32 24.52704 54.01659 17981 ft 390 kts 269°
2026-05-03 22:33 24.52583 53.98669 18463 ft 394 kts 269°
2026-05-03 22:33 24.52462 53.95652 18958 ft 397 kts 269°
2026-05-03 22:33 24.52402 53.92653 19449 ft 399 kts 274°
2026-05-03 22:33 24.52749 53.89645 19724 ft 398 kts 282°
2026-05-03 22:34 24.53380 53.86596 19783 ft 412 kts 285°
2026-05-03 22:34 24.54147 53.83554 19782 ft 427 kts 287°
2026-05-03 22:34 24.54996 53.80401 19783 ft 431 kts 287°
2026-05-03 22:34 24.55849 53.77251 19786 ft 430 kts 287°
2026-05-03 22:35 24.56685 53.74103 19791 ft 430 kts 287°
2026-05-03 22:35 24.57505 53.70943 19787 ft 429 kts 287°
2026-05-03 22:35 24.58308 53.67788 19788 ft 429 kts 286°
2026-05-03 22:35 24.59103 53.64627 19785 ft 429 kts 286°
2026-05-03 22:36 24.59893 53.61463 19788 ft 429 kts 286°
2026-05-03 22:36 24.60681 53.58299 19788 ft 429 kts 286°
2026-05-03 22:36 24.61467 53.55141 19787 ft 429 kts 286°
2026-05-03 22:36 24.62254 53.51977 19788 ft 429 kts 286°
2026-05-03 22:37 24.63042 53.48810 19790 ft 429 kts 286°
2026-05-03 22:37 24.63830 53.45641 19790 ft 429 kts 286°
2026-05-03 22:37 24.64617 53.42477 19791 ft 429 kts 286°